﻿_id,Station,Date,Leq 24Hr,Leq min,Leq max,Count Hr
1,ns01,2019-01-01T00:00:00,71.8,68.9,75.4,24
2,ns01,2019-01-02T00:00:00,72.2,67.9,75.5,24
3,ns01,2019-01-03T00:00:00,72.9,68.7,78.4,24
4,ns01,2019-01-04T00:00:00,72.5,68.4,74.6,24
5,ns01,2019-01-05T00:00:00,71.9,67.4,73.6,24
6,ns01,2019-01-06T00:00:00,72.5,68.6,76.4,24
7,ns01,2019-01-07T00:00:00,73.1,66.9,76.5,24
8,ns01,2019-01-08T00:00:00,73,68.5,79.9,24
9,ns01,2019-01-09T00:00:00,72.8,66.9,78,24
10,ns01,2019-01-10T00:00:00,72.5,68,76.8,24
11,ns01,2019-01-11T00:00:00,72.7,67.5,76.1,24
12,ns01,2019-01-12T00:00:00,72.2,68.7,74,24
13,ns01,2019-01-13T00:00:00,71.4,68.3,72.9,24
14,ns01,2019-01-14T00:00:00,72.9,67.3,77.6,24
15,ns01,2019-01-15T00:00:00,72.2,67.3,74.7,24
16,ns01,2019-01-16T00:00:00,72.9,67,77.8,24
17,ns01,2019-01-17T00:00:00,72.5,67.3,75.4,24
18,ns01,2019-01-18T00:00:00,73.4,68,76.8,24
19,ns01,2019-01-19T00:00:00,72.6,69.9,77.9,24
20,ns01,2019-01-20T00:00:00,71.6,69,73,24
21,ns01,2019-01-21T00:00:00,72.6,66.5,76.6,24
22,ns01,2019-01-22T00:00:00,72.9,67.3,76.4,24
23,ns01,2019-01-23T00:00:00,73.1,67.4,78.1,24
24,ns01,2019-01-24T00:00:00,72.5,67.2,76.2,24
25,ns01,2019-01-25T00:00:00,72.7,67.7,76,24
26,ns01,2019-01-26T00:00:00,72.3,67.7,74.7,24
27,ns01,2019-01-27T00:00:00,72.7,67.9,79.6,24
28,ns01,2019-01-28T00:00:00,73.1,67.3,78.6,24
29,ns01,2019-01-29T00:00:00,72.4,67.8,74.8,24
30,ns01,2019-01-30T00:00:00,72.3,67,76.6,24
31,ns01,2019-01-31T00:00:00,72.6,67.6,74.4,24
32,ns01,2019-02-01T00:00:00,72.8,69.5,76.5,24
33,ns01,2019-02-02T00:00:00,72.1,69,73.9,24
34,ns01,2019-02-03T00:00:00,71.9,70.3,72.9,24
35,ns01,2019-02-04T00:00:00,72.4,67.5,74.2,24
36,ns01,2019-02-05T00:00:00,72.5,67.9,77.1,24
37,ns01,2019-02-06T00:00:00,72.1,67.2,74.3,24
38,ns01,2019-02-07T00:00:00,72.4,67,75.3,24
39,ns01,2019-02-08T00:00:00,73.1,67.3,80.7,24
40,ns01,2019-02-09T00:00:00,72,68.3,74.5,24
41,ns01,2019-02-10T00:00:00,71.7,67.9,77,24
42,ns01,2019-02-11T00:00:00,72.7,67.9,77.2,24
43,ns01,2019-02-12T00:00:00,72.3,67.8,74.2,24
44,ns01,2019-02-13T00:00:00,72.5,67.1,75.9,24
45,ns01,2019-02-14T00:00:00,73,68.6,77.3,24
46,ns01,2019-02-15T00:00:00,73.1,68.2,76.2,24
47,ns01,2019-02-16T00:00:00,72.1,69.6,73.9,24
48,ns01,2019-02-17T00:00:00,71.7,69.2,73.9,24
49,ns01,2019-02-18T00:00:00,72.3,67.4,76.5,24
50,ns01,2019-02-19T00:00:00,71.4,67.8,73.7,24
51,ns01,2019-02-20T00:00:00,71.9,66.6,73.9,24
52,ns01,2019-02-21T00:00:00,72,66.9,75.9,24
53,ns01,2019-02-22T00:00:00,72,67.3,74.7,24
54,ns01,2019-02-23T00:00:00,71.5,66.8,74.8,24
55,ns01,2019-02-24T00:00:00,70.9,67.7,72.7,24
56,ns01,2019-02-25T00:00:00,71.9,66.2,75.3,24
57,ns01,2019-02-26T00:00:00,71.9,66.8,74.1,24
58,ns01,2019-02-27T00:00:00,72.1,67.5,75.7,24
59,ns01,2019-02-28T00:00:00,71.9,67,74.9,24
60,ns01,2019-03-01T00:00:00,72.3,68,75.8,24
61,ns01,2019-03-02T00:00:00,71.5,68.1,73.1,24
62,ns01,2019-03-03T00:00:00,71.1,67.8,72.6,24
63,ns01,2019-03-04T00:00:00,72.1,67.4,74.5,24
64,ns01,2019-03-05T00:00:00,71.6,67.4,73.3,24
65,ns01,2019-03-06T00:00:00,72.7,66.8,79,24
66,ns01,2019-03-07T00:00:00,71.9,67,73.3,24
67,ns01,2019-03-08T00:00:00,72,66.6,76,24
68,ns01,2019-03-09T00:00:00,71.8,68.2,75.2,24
69,ns01,2019-03-10T00:00:00,71.1,67.6,73,24
70,ns01,2019-03-11T00:00:00,72.2,68.7,74,24
71,ns01,2019-03-12T00:00:00,72.5,67.1,75.9,24
72,ns01,2019-03-13T00:00:00,72.3,67.5,78.2,24
73,ns01,2019-03-14T00:00:00,72.1,67.5,74.5,24
74,ns01,2019-03-15T00:00:00,72,67.6,73.7,24
75,ns01,2019-03-16T00:00:00,71.9,67.1,73.5,24
76,ns01,2019-03-17T00:00:00,71.3,66.6,73.9,24
77,ns01,2019-03-18T00:00:00,71.8,66.5,74.1,24
78,ns01,2019-03-19T00:00:00,72,67.7,74.5,24
79,ns01,2019-03-20T00:00:00,72.3,68.2,75.6,24
80,ns01,2019-03-21T00:00:00,72,66.2,74.3,24
81,ns01,2019-03-22T00:00:00,72,67,75.1,24
82,ns01,2019-03-23T00:00:00,71.9,67.8,75.1,24
83,ns01,2019-03-24T00:00:00,70.9,66.5,72.6,24
84,ns01,2019-03-25T00:00:00,71.9,67.2,73.6,24
85,ns01,2019-03-26T00:00:00,72,67.8,74.1,24
86,ns01,2019-03-27T00:00:00,72,68.5,73.9,24
87,ns01,2019-03-28T00:00:00,72.6,68.3,75.9,24
88,ns01,2019-03-29T00:00:00,72.3,68.5,73.9,24
89,ns01,2019-03-30T00:00:00,71.8,68,73.7,24
90,ns01,2019-03-31T00:00:00,71.4,68,73.7,24
91,ns01,2019-04-01T00:00:00,71.9,67.7,74.3,24
92,ns01,2019-04-02T00:00:00,72.3,67.3,77.6,24
93,ns01,2019-04-03T00:00:00,72.3,67.6,76.3,24
94,ns01,2019-04-04T00:00:00,72,68.4,74.4,24
95,ns01,2019-04-05T00:00:00,72.4,67.6,76.5,24
96,ns01,2019-04-06T00:00:00,71.8,67.2,74.8,24
97,ns01,2019-04-07T00:00:00,71.6,67.3,74.1,24
98,ns01,2019-04-08T00:00:00,71.8,66.7,73.7,24
99,ns01,2019-04-09T00:00:00,71.9,67.9,74.3,24
100,ns01,2019-04-10T00:00:00,71.9,67.4,73.5,24
101,ns01,2019-04-11T00:00:00,72.3,67.8,75.6,24
102,ns01,2019-04-12T00:00:00,71.8,68.6,74.2,24
103,ns01,2019-04-13T00:00:00,71.8,68.6,75.2,24
104,ns01,2019-04-14T00:00:00,71.1,68,74.5,24
105,ns01,2019-04-15T00:00:00,71.3,67.3,74.5,24
106,ns01,2019-04-16T00:00:00,70.6,68.3,73.3,24
107,ns01,2019-04-17T00:00:00,71.4,66.2,74.1,24
108,ns01,2019-04-18T00:00:00,71.5,66.8,73.8,24
109,ns01,2019-04-19T00:00:00,72.8,68.2,77.8,24
110,ns01,2019-04-20T00:00:00,71.6,67.3,74.5,24
111,ns01,2019-04-21T00:00:00,71.1,66.4,76.6,24
112,ns01,2019-04-22T00:00:00,71.8,66.2,74.2,24
113,ns01,2019-04-23T00:00:00,72,67.5,73.7,24
114,ns01,2019-04-24T00:00:00,72,67.3,75.7,24
115,ns01,2019-04-25T00:00:00,71.9,67.9,73.5,24
116,ns01,2019-04-26T00:00:00,73.9,67.9,83.3,24
117,ns01,2019-04-27T00:00:00,71.6,68,73.4,24
118,ns01,2019-04-28T00:00:00,70.9,67.8,73.1,24
119,ns01,2019-04-29T00:00:00,72.3,67,75.5,24
120,ns01,2019-04-30T00:00:00,72,67.5,74,24
121,ns01,2019-05-01T00:00:00,72,68.1,78.9,24
122,ns01,2019-05-02T00:00:00,71.5,64.8,73.2,24
123,ns01,2019-05-03T00:00:00,71.7,67.4,73.1,24
124,ns01,2019-05-04T00:00:00,70.1,66.4,72.5,24
125,ns01,2019-05-05T00:00:00,67.8,62,72.6,24
126,ns01,2019-05-06T00:00:00,70.5,63.8,73.3,24
127,ns01,2019-05-07T00:00:00,72.4,66.7,76.7,24
128,ns01,2019-05-08T00:00:00,71.9,67.1,73.5,24
129,ns01,2019-05-09T00:00:00,71.7,68.4,73.6,24
130,ns01,2019-05-10T00:00:00,72.8,68.7,77.7,24
131,ns01,2019-05-11T00:00:00,72.3,68.3,76.7,24
132,ns01,2019-05-12T00:00:00,71.4,67.4,77.2,24
133,ns01,2019-05-13T00:00:00,72,65.9,74.7,24
134,ns01,2019-05-14T00:00:00,72.4,66.5,75.4,24
135,ns01,2019-05-15T00:00:00,73.6,67.6,82.1,24
136,ns01,2019-05-16T00:00:00,74.8,67.9,84.2,24
137,ns01,2019-05-17T00:00:00,73.2,68.6,78.8,24
138,ns01,2019-05-18T00:00:00,72.2,68.9,76,24
139,ns01,2019-05-19T00:00:00,71.5,66.7,78.2,24
140,ns01,2019-05-20T00:00:00,74.2,67,84.6,24
141,ns01,2019-05-21T00:00:00,73.2,68.1,79.5,24
142,ns01,2019-05-22T00:00:00,72.1,67.3,74.4,24
143,ns01,2019-05-23T00:00:00,72,67.2,74.2,24
144,ns01,2019-05-24T00:00:00,71.9,67,73.9,24
145,ns01,2019-05-25T00:00:00,72,68,74,24
146,ns01,2019-05-26T00:00:00,71.4,68.2,75.9,24
147,ns01,2019-05-27T00:00:00,71.8,66.9,74,24
148,ns01,2019-05-28T00:00:00,72,67.2,74.7,24
149,ns01,2019-05-29T00:00:00,72.7,67.4,78.8,24
150,ns01,2019-05-30T00:00:00,72.3,66.6,74.7,24
151,ns01,2019-05-31T00:00:00,72.5,67.3,74.7,24
152,ns01,2019-06-01T00:00:00,71.8,67.9,73.9,24
153,ns01,2019-06-02T00:00:00,71.3,68.5,73,24
154,ns01,2019-06-03T00:00:00,71.4,66.8,74.9,24
155,ns01,2019-06-04T00:00:00,72.1,66.7,74.3,24
156,ns01,2019-06-05T00:00:00,72.4,67.8,74.6,24
157,ns01,2019-06-06T00:00:00,73.5,67.8,81.3,24
158,ns01,2019-06-07T00:00:00,72.9,67.9,78.3,24
159,ns01,2019-06-08T00:00:00,71.6,67.9,73.6,24
160,ns01,2019-06-09T00:00:00,71.7,67.9,76.1,24
161,ns01,2019-06-10T00:00:00,72.2,67,76.4,24
162,ns01,2019-06-11T00:00:00,72.5,66.4,76,24
163,ns01,2019-06-12T00:00:00,72,68,74.3,24
164,ns01,2019-06-13T00:00:00,72.4,66.9,76,24
165,ns01,2019-06-14T00:00:00,72.5,68,75.8,24
166,ns01,2019-06-15T00:00:00,72.3,68.5,75.4,24
167,ns01,2019-06-16T00:00:00,71.1,68.1,72.7,24
168,ns01,2019-06-17T00:00:00,72.3,67.3,77,24
169,ns01,2019-06-18T00:00:00,73.1,68,80.6,24
170,ns01,2019-06-19T00:00:00,72.5,67.5,74.8,24
171,ns01,2019-06-20T00:00:00,72.5,67.9,74.2,24
172,ns01,2019-06-21T00:00:00,72.3,68.5,74.2,24
173,ns01,2019-06-22T00:00:00,72.1,67.5,75.7,24
174,ns01,2019-06-23T00:00:00,71.5,69,73.4,24
175,ns01,2019-06-24T00:00:00,72.1,68,74.2,24
176,ns01,2019-06-25T00:00:00,73.2,67.4,77.2,24
177,ns01,2019-06-26T00:00:00,72.2,67.7,75,24
178,ns01,2019-06-27T00:00:00,72.1,67.2,74.3,24
179,ns01,2019-06-28T00:00:00,72.5,67.4,76,24
180,ns01,2019-06-29T00:00:00,72,68.2,73.6,24
181,ns01,2019-06-30T00:00:00,71.7,67.5,74.3,24
182,ns01,2019-07-01T00:00:00,73,68.2,75.7,24
183,ns01,2019-07-02T00:00:00,72.5,67.8,74.6,24
184,ns01,2019-07-03T00:00:00,72.2,69.2,74.5,24
185,ns01,2019-07-04T00:00:00,72.8,66.8,77.4,24
186,ns01,2019-07-05T00:00:00,72.3,67.2,75.1,24
187,ns01,2019-07-06T00:00:00,72,68.3,74.2,24
188,ns01,2019-07-07T00:00:00,71.1,68.1,73,24
189,ns01,2019-07-08T00:00:00,72.5,67.3,75.9,24
190,ns01,2019-07-09T00:00:00,73.4,68,81.7,24
191,ns01,2019-07-10T00:00:00,72.4,66.5,76.1,24
192,ns01,2019-07-11T00:00:00,72.7,67.4,78.6,24
193,ns01,2019-07-12T00:00:00,72.4,68.2,74.8,24
194,ns01,2019-07-13T00:00:00,72,68.4,73.8,24
195,ns01,2019-07-14T00:00:00,71.3,68.8,73.3,24
196,ns01,2019-07-15T00:00:00,72.4,68.5,74.6,24
197,ns01,2019-07-16T00:00:00,71.8,68,73.8,24
198,ns01,2019-07-17T00:00:00,71.5,67.6,73.7,24
199,ns01,2019-07-18T00:00:00,72.1,67.2,74.1,24
200,ns01,2019-07-19T00:00:00,72.2,68.2,74.2,24
201,ns01,2019-07-20T00:00:00,72.5,67.8,78.1,24
202,ns01,2019-07-21T00:00:00,71.7,68.7,76.1,24
203,ns01,2019-07-22T00:00:00,72.2,67.3,74.5,24
204,ns01,2019-07-23T00:00:00,72.2,67.7,74.6,24
205,ns01,2019-07-24T00:00:00,72.6,67.5,74.8,24
206,ns01,2019-07-25T00:00:00,72.5,66.8,75.5,24
207,ns01,2019-07-26T00:00:00,72.9,67.1,76.2,24
208,ns01,2019-07-27T00:00:00,72.8,70,75.5,24
209,ns01,2019-07-28T00:00:00,72.3,67.9,75.1,24
210,ns01,2019-07-29T00:00:00,71.7,68.3,72.9,24
211,ns01,2019-07-30T00:00:00,72.4,68.6,74.4,24
212,ns01,2019-07-31T00:00:00,72.2,68.1,74.7,24
213,ns01,2019-08-01T00:00:00,72.9,67.7,76.5,24
214,ns01,2019-08-02T00:00:00,72.4,67.1,74.7,24
215,ns01,2019-08-03T00:00:00,72.3,68.3,77.3,24
216,ns01,2019-08-04T00:00:00,71.2,68.3,72.9,24
217,ns01,2019-08-05T00:00:00,72.9,67.6,75.9,24
218,ns01,2019-08-06T00:00:00,72.7,67.1,75.7,24
219,ns01,2019-08-07T00:00:00,72.8,68.1,75.7,24
220,ns01,2019-08-08T00:00:00,72.4,68,74.4,24
221,ns01,2019-08-09T00:00:00,72.9,67.5,76.3,24
222,ns01,2019-08-10T00:00:00,72.3,67.8,74.8,24
223,ns01,2019-08-11T00:00:00,71.5,68.2,72.7,24
224,ns01,2019-08-12T00:00:00,71.9,68.9,73.7,24
225,ns01,2019-08-13T00:00:00,72.5,68.3,75.7,24
226,ns01,2019-08-14T00:00:00,73.3,68.6,76.9,24
227,ns01,2019-08-15T00:00:00,72.8,68.4,77.4,24
228,ns01,2019-08-16T00:00:00,73.3,67.2,79.5,24
229,ns01,2019-08-17T00:00:00,71.8,67.4,75,24
230,ns01,2019-08-18T00:00:00,71.4,68,74.6,24
231,ns01,2019-08-19T00:00:00,72.4,66.9,74.8,24
232,ns01,2019-08-20T00:00:00,72.6,67.2,76.5,24
233,ns01,2019-08-21T00:00:00,72.7,67.6,77.2,24
234,ns01,2019-08-22T00:00:00,72.4,67.6,75,24
235,ns01,2019-08-23T00:00:00,72.8,67.6,75.5,24
236,ns01,2019-08-24T00:00:00,72.1,68.5,74,24
237,ns01,2019-08-25T00:00:00,71.6,68.7,76,24
238,ns01,2019-08-26T00:00:00,72.3,67.4,74.5,24
239,ns01,2019-08-27T00:00:00,72.5,67.6,75.2,24
240,ns01,2019-08-28T00:00:00,72.3,68.6,74.4,24
241,ns01,2019-08-29T00:00:00,72.6,66.7,75,24
242,ns01,2019-08-30T00:00:00,72.5,67.1,77.2,24
243,ns01,2019-08-31T00:00:00,72.2,68,74.6,24
244,ns01,2019-09-01T00:00:00,71.4,69,73.3,24
245,ns01,2019-09-02T00:00:00,72.3,67.2,74.4,24
246,ns01,2019-09-03T00:00:00,72.5,67.4,76.4,24
247,ns01,2019-09-04T00:00:00,72.6,66.4,76.9,24
248,ns01,2019-09-05T00:00:00,72.4,68.3,76.5,24
249,ns01,2019-09-06T00:00:00,73,68.1,78,24
250,ns01,2019-09-07T00:00:00,72.2,68,75.1,24
251,ns01,2019-09-08T00:00:00,71.9,68,75.6,24
252,ns01,2019-09-09T00:00:00,72.3,66.4,75.7,24
253,ns01,2019-09-10T00:00:00,72.5,66.9,75.3,24
254,ns01,2019-09-11T00:00:00,72.6,68.1,75.8,24
255,ns01,2019-09-12T00:00:00,72.7,67.9,76.2,24
256,ns01,2019-09-13T00:00:00,72.2,67.6,74.6,24
257,ns01,2019-09-14T00:00:00,72.1,67.6,76.5,24
258,ns01,2019-09-15T00:00:00,71.4,67.1,73.2,24
259,ns01,2019-09-16T00:00:00,72.4,66.9,74.7,24
260,ns01,2019-09-17T00:00:00,73,67.1,76.7,24
261,ns01,2019-09-18T00:00:00,72.8,67,75.5,24
262,ns01,2019-09-19T00:00:00,72.6,67.8,74.7,24
263,ns01,2019-09-20T00:00:00,72.7,67.8,75.1,24
264,ns01,2019-09-21T00:00:00,72.9,69.7,74.8,24
265,ns01,2019-09-22T00:00:00,71.8,67.7,75.8,24
266,ns01,2019-09-23T00:00:00,72.5,66.9,74.7,24
267,ns01,2019-09-24T00:00:00,72.5,66.3,75.4,24
268,ns01,2019-09-25T00:00:00,72.5,65.8,74.3,24
269,ns01,2019-09-26T00:00:00,72.3,67.4,74.3,24
270,ns01,2019-09-27T00:00:00,72.5,66.9,75.2,24
271,ns01,2019-09-28T00:00:00,72.5,68.6,77.8,24
272,ns01,2019-09-29T00:00:00,71.6,67.9,76.4,24
273,ns01,2019-09-30T00:00:00,72.1,66.2,74.2,24
274,ns01,2019-10-01T00:00:00,72.4,67.5,74.8,24
275,ns01,2019-10-02T00:00:00,72.3,67.4,74.3,24
276,ns01,2019-10-03T00:00:00,72.4,67.1,75,24
277,ns01,2019-10-04T00:00:00,73.3,67.1,80.5,24
278,ns01,2019-10-05T00:00:00,72.6,68.8,76.6,24
279,ns01,2019-10-06T00:00:00,71.9,68.5,74.9,24
280,ns01,2019-10-07T00:00:00,72.8,67.2,75.9,24
281,ns01,2019-10-08T00:00:00,72.9,67.2,77.6,24
282,ns01,2019-10-09T00:00:00,72.7,67.2,77,24
283,ns01,2019-10-10T00:00:00,72.6,67.4,75.6,24
284,ns01,2019-10-11T00:00:00,72.7,67.5,75.3,24
285,ns01,2019-10-12T00:00:00,72.1,68.4,74,24
286,ns01,2019-10-13T00:00:00,71.7,68.6,73.5,24
287,ns01,2019-10-14T00:00:00,71.5,66.5,73.9,24
288,ns01,2019-10-15T00:00:00,72.4,66.7,75.7,24
289,ns01,2019-10-16T00:00:00,72.7,67.4,76.5,24
290,ns01,2019-10-17T00:00:00,72.3,67.2,74.5,24
291,ns01,2019-10-18T00:00:00,72.5,66.6,75.6,24
292,ns01,2019-10-19T00:00:00,72,67.8,75.8,24
293,ns01,2019-10-20T00:00:00,71.8,68.7,74.4,24
294,ns01,2019-10-21T00:00:00,72.7,67.2,75.8,24
295,ns01,2019-10-22T00:00:00,72.2,67.7,74.1,24
296,ns01,2019-10-23T00:00:00,72.3,67.1,76.7,24
297,ns01,2019-10-24T00:00:00,72.4,68.6,75.7,24
298,ns01,2019-10-25T00:00:00,72.3,68.3,74.3,24
299,ns01,2019-10-26T00:00:00,72,67.6,75,24
300,ns01,2019-10-27T00:00:00,71.3,67.9,73.2,24
301,ns01,2019-10-28T00:00:00,72.3,66.7,74.2,24
302,ns01,2019-10-29T00:00:00,72.5,67.3,75.1,24
303,ns01,2019-10-30T00:00:00,72.4,67.4,74.8,24
304,ns01,2019-10-31T00:00:00,72.6,67.8,74.7,24
305,ns01,2019-11-01T00:00:00,73.5,68.6,77,24
306,ns01,2019-11-02T00:00:00,73.1,69.9,75.1,24
307,ns01,2019-11-03T00:00:00,72.9,70.1,76.3,24
308,ns01,2019-11-04T00:00:00,73.3,68.6,76,24
309,ns01,2019-11-05T00:00:00,73,68.2,74.9,24
310,ns01,2019-11-06T00:00:00,73.5,68,76.1,24
311,ns01,2019-11-07T00:00:00,73.2,68.7,75,24
312,ns01,2019-11-08T00:00:00,73.8,68.7,78.8,24
313,ns01,2019-11-09T00:00:00,73.7,69.8,77.2,24
314,ns01,2019-11-10T00:00:00,72.9,70,74.7,24
315,ns01,2019-11-11T00:00:00,74.1,69.7,76.2,24
316,ns01,2019-11-12T00:00:00,74.1,69.1,80.8,24
317,ns01,2019-11-13T00:00:00,73.8,68.5,77.4,24
318,ns01,2019-11-14T00:00:00,73.7,69,76.3,24
319,ns01,2019-11-15T00:00:00,73.5,68.5,76.2,24
320,ns01,2019-11-16T00:00:00,73,69,75,24
321,ns01,2019-11-17T00:00:00,72.4,69.3,74,24
322,ns01,2019-11-18T00:00:00,73.4,69.4,75.5,24
323,ns01,2019-11-19T00:00:00,73.1,68.7,75.4,24
324,ns01,2019-11-20T00:00:00,73.3,67.4,75.6,24
325,ns01,2019-11-21T00:00:00,73.2,68.4,75.1,24
326,ns01,2019-11-22T00:00:00,73.4,68.1,76.8,24
327,ns01,2019-11-23T00:00:00,73.1,68.1,76.5,24
328,ns01,2019-11-24T00:00:00,72.3,68.3,74.1,24
329,ns01,2019-11-25T00:00:00,73,67.9,75.2,24
330,ns01,2019-11-26T00:00:00,73,68,74.9,24
331,ns01,2019-11-27T00:00:00,73.2,66.5,76.2,24
332,ns01,2019-11-28T00:00:00,73.1,68.3,74.8,24
333,ns01,2019-11-29T00:00:00,73.4,68.5,75.9,24
334,ns01,2019-11-30T00:00:00,73,69.2,75.8,24
335,ns01,2019-12-01T00:00:00,72,69.1,73.2,24
336,ns01,2019-12-02T00:00:00,73,67.6,75.1,24
337,ns01,2019-12-03T00:00:00,73.2,67.8,75.9,24
338,ns01,2019-12-04T00:00:00,73.6,69.3,76,24
339,ns01,2019-12-05T00:00:00,73.1,68.7,75.2,24
340,ns01,2019-12-06T00:00:00,73.6,68.9,75.3,24
341,ns01,2019-12-07T00:00:00,73.3,68.7,76.1,24
342,ns01,2019-12-08T00:00:00,72.4,68.5,74.7,24
343,ns01,2019-12-09T00:00:00,73.4,68.3,75.7,24
344,ns01,2019-12-10T00:00:00,73.6,69.3,78.8,24
345,ns01,2019-12-11T00:00:00,73.2,69,75.4,24
346,ns01,2019-12-12T00:00:00,74,68.7,77.6,24
347,ns01,2019-12-13T00:00:00,73.3,68.1,75.7,24
348,ns01,2019-12-14T00:00:00,73.6,68.8,77.8,24
349,ns01,2019-12-15T00:00:00,72.4,69,74.4,24
350,ns01,2019-12-16T00:00:00,73.2,67.2,76,24
351,ns01,2019-12-17T00:00:00,73.3,68.3,75.2,24
352,ns01,2019-12-18T00:00:00,73.6,69.2,76.7,24
353,ns01,2019-12-19T00:00:00,73.6,69.5,75.9,24
354,ns01,2019-12-20T00:00:00,73.4,68,75.6,24
355,ns01,2019-12-21T00:00:00,73,68.8,74.6,24
356,ns01,2019-12-22T00:00:00,72.8,69.2,74.4,24
357,ns01,2019-12-23T00:00:00,73.2,68.9,75.5,24
358,ns01,2019-12-24T00:00:00,73.4,69.2,75.9,24
359,ns01,2019-12-25T00:00:00,73.4,69,75.1,24
360,ns01,2019-12-26T00:00:00,73.3,68.5,75,24
361,ns01,2019-12-27T00:00:00,73.5,67.8,75.5,24
362,ns01,2019-12-28T00:00:00,72.9,69.4,75.8,24
363,ns01,2019-12-29T00:00:00,72.5,68.7,75.5,24
364,ns01,2019-12-30T00:00:00,72,66.9,73.5,24
365,ns01,2019-12-31T00:00:00,72.5,68.5,74.3,24
366,ns02,2019-03-04T00:00:00,,,,
367,ns02,2019-03-05T00:00:00,,47.1,57,11
368,ns02,2019-03-06T00:00:00,55.7,45.2,61,24
369,ns02,2019-03-07T00:00:00,54.6,45.1,61.2,24
370,ns02,2019-03-08T00:00:00,55.4,45.3,61,24
371,ns02,2019-03-09T00:00:00,53.8,42.7,57.1,24
372,ns02,2019-03-10T00:00:00,,,,
373,ns02,2019-03-11T00:00:00,,,,
374,ns02,2019-03-12T00:00:00,,,,
375,ns02,2019-03-13T00:00:00,,,,
376,ns02,2019-03-14T00:00:00,,,,
377,ns02,2019-03-15T00:00:00,,,,
378,ns02,2019-03-16T00:00:00,,,,
379,ns02,2019-03-17T00:00:00,,,,
380,ns02,2019-03-18T00:00:00,,,,
381,ns02,2019-03-19T00:00:00,,,,
382,ns02,2019-03-20T00:00:00,,,,
383,ns02,2019-03-21T00:00:00,,,,
384,ns02,2019-03-22T00:00:00,,,,
385,ns02,2019-03-23T00:00:00,,,,
386,ns02,2019-03-24T00:00:00,,,,
387,ns02,2019-03-25T00:00:00,,,,
388,ns02,2019-03-26T00:00:00,,43.7,57.1,11
389,ns02,2019-03-27T00:00:00,53.6,42.7,58.8,24
390,ns02,2019-03-28T00:00:00,54.7,43.2,63.1,24
391,ns02,2019-03-29T00:00:00,58,43.9,63.2,24
392,ns02,2019-03-30T00:00:00,53.7,42.1,60.4,24
393,ns02,2019-03-31T00:00:00,51.9,43.5,55.9,24
394,ns02,2019-04-01T00:00:00,55.7,43.9,62.2,24
395,ns02,2019-04-02T00:00:00,61.8,43.4,72.6,24
396,ns02,2019-04-03T00:00:00,67.5,45.2,78.5,23
397,ns02,2019-04-04T00:00:00,56.5,46.9,63.4,24
398,ns02,2019-04-05T00:00:00,55.3,45.3,62.7,24
399,ns02,2019-04-06T00:00:00,53.1,45.7,58.4,24
400,ns02,2019-04-07T00:00:00,53.3,43.3,60.7,24
401,ns02,2019-04-08T00:00:00,51.8,44.8,56.4,24
402,ns02,2019-04-09T00:00:00,54.1,46.7,58.9,24
403,ns02,2019-04-10T00:00:00,55.8,45.1,61.9,24
404,ns02,2019-04-11T00:00:00,,46.5,48.4,5
405,ns02,2019-04-12T00:00:00,,,,
406,ns02,2019-04-13T00:00:00,,,,
407,ns02,2019-04-14T00:00:00,,,,
408,ns02,2019-04-15T00:00:00,,,,
409,ns02,2019-04-16T00:00:00,,,,
410,ns02,2019-04-17T00:00:00,,,,
411,ns02,2019-04-18T00:00:00,,,,
412,ns02,2019-04-19T00:00:00,,,,
413,ns02,2019-04-20T00:00:00,,,,
414,ns02,2019-04-21T00:00:00,,,,
415,ns02,2019-04-22T00:00:00,,,,
416,ns02,2019-04-23T00:00:00,,,,
417,ns02,2019-04-24T00:00:00,,,,
418,ns02,2019-04-25T00:00:00,,,,
419,ns02,2019-04-26T00:00:00,,,,
420,ns02,2019-04-27T00:00:00,,,,
421,ns02,2019-04-28T00:00:00,,,,
422,ns02,2019-04-29T00:00:00,,,,
423,ns02,2019-04-30T00:00:00,,,,
424,ns02,2019-05-01T00:00:00,,,,
425,ns02,2019-05-02T00:00:00,,,,
426,ns02,2019-05-03T00:00:00,,,,
427,ns02,2019-05-04T00:00:00,,,,
428,ns02,2019-05-05T00:00:00,,,,
429,ns02,2019-05-06T00:00:00,,,,
430,ns02,2019-05-07T00:00:00,,,,
431,ns02,2019-05-08T00:00:00,,,,
432,ns02,2019-05-09T00:00:00,,,,
433,ns02,2019-05-10T00:00:00,,,,
434,ns02,2019-05-11T00:00:00,,,,
435,ns02,2019-05-12T00:00:00,,,,
436,ns02,2019-05-13T00:00:00,,,,
437,ns02,2019-05-14T00:00:00,,,,
438,ns02,2019-05-15T00:00:00,,48.1,52.9,5
439,ns02,2019-05-16T00:00:00,54.7,43.9,60.8,24
440,ns02,2019-05-17T00:00:00,53.4,44.2,58.3,24
441,ns02,2019-05-18T00:00:00,50.7,43.8,55.7,24
442,ns02,2019-05-19T00:00:00,51.4,42.3,58.6,24
443,ns02,2019-05-20T00:00:00,56.4,42.3,68.4,24
444,ns02,2019-05-21T00:00:00,53.4,42.6,59.3,24
445,ns02,2019-05-22T00:00:00,55.6,43.8,66,24
446,ns02,2019-05-23T00:00:00,61.5,41.6,70.9,24
447,ns02,2019-05-24T00:00:00,52.8,43.4,58,24
448,ns02,2019-05-25T00:00:00,52,43.4,57.5,24
449,ns02,2019-05-26T00:00:00,52.5,43.9,58.7,24
450,ns02,2019-05-27T00:00:00,54.4,43.7,61.6,24
451,ns02,2019-05-28T00:00:00,53.9,44,59.9,24
452,ns02,2019-05-29T00:00:00,55.7,44,64.6,24
453,ns02,2019-05-30T00:00:00,61.6,44.7,74.7,24
454,ns02,2019-05-31T00:00:00,53.1,44.3,58.8,24
455,ns02,2019-06-01T00:00:00,51.1,44.8,55.5,24
456,ns02,2019-06-02T00:00:00,60.4,42.9,73,24
457,ns02,2019-06-03T00:00:00,51.8,46.3,57.2,24
458,ns02,2019-06-04T00:00:00,52.9,45.9,57.2,24
459,ns02,2019-06-05T00:00:00,53.6,45.1,60.3,24
460,ns02,2019-06-06T00:00:00,64.2,43.2,77.7,24
461,ns02,2019-06-07T00:00:00,58.2,46.6,69.8,24
462,ns02,2019-06-08T00:00:00,52.8,46.5,62.3,24
463,ns02,2019-06-09T00:00:00,53,47.3,57.8,24
464,ns02,2019-06-10T00:00:00,54.6,48.5,60.2,24
465,ns02,2019-06-11T00:00:00,55.2,47.9,61.2,24
466,ns02,2019-06-12T00:00:00,58.5,50.3,67,24
467,ns02,2019-06-13T00:00:00,60.5,49.6,71,24
468,ns02,2019-06-14T00:00:00,54.4,47.7,58.1,24
469,ns02,2019-06-15T00:00:00,56,47.5,66.3,24
470,ns02,2019-06-16T00:00:00,52.6,48,56.6,24
471,ns02,2019-06-17T00:00:00,54.2,47.2,58.4,24
472,ns02,2019-06-18T00:00:00,54.7,47.9,60.8,24
473,ns02,2019-06-19T00:00:00,53.6,47.4,58.7,24
474,ns02,2019-06-20T00:00:00,53.9,47.3,58.1,24
475,ns02,2019-06-21T00:00:00,53.8,46.3,60.1,24
476,ns02,2019-06-22T00:00:00,52.7,46.1,60.2,24
477,ns02,2019-06-23T00:00:00,51,45,55,24
478,ns02,2019-06-24T00:00:00,53.9,43.1,59.8,24
479,ns02,2019-06-25T00:00:00,52.6,43.4,58.4,24
480,ns02,2019-06-26T00:00:00,56.8,45.3,65.6,24
481,ns02,2019-06-27T00:00:00,53.7,46.1,58.2,24
482,ns02,2019-06-28T00:00:00,55,45.7,62.6,24
483,ns02,2019-06-29T00:00:00,53.2,43.4,60.1,24
484,ns02,2019-06-30T00:00:00,52.3,44.5,57.7,24
485,ns02,2019-07-01T00:00:00,53.2,43.5,58.3,24
486,ns02,2019-07-02T00:00:00,61.7,44.6,71.4,24
487,ns02,2019-07-03T00:00:00,59.8,54.4,64.8,24
488,ns02,2019-07-04T00:00:00,55.7,52.1,59.6,24
489,ns02,2019-07-05T00:00:00,55.2,50,59.9,24
490,ns02,2019-07-06T00:00:00,53.6,47.8,60,24
491,ns02,2019-07-07T00:00:00,54.8,46.6,63.8,24
492,ns02,2019-07-08T00:00:00,60,48.9,72.1,24
493,ns02,2019-07-09T00:00:00,53.3,47.5,59.9,24
494,ns02,2019-07-10T00:00:00,55.3,47.3,62.4,24
495,ns02,2019-07-11T00:00:00,54.4,46.3,59.8,24
496,ns02,2019-07-12T00:00:00,52.4,45.6,56.6,24
497,ns02,2019-07-13T00:00:00,52.7,45.4,57.6,24
498,ns02,2019-07-14T00:00:00,57,46.6,69.1,24
499,ns02,2019-07-15T00:00:00,53.3,46.2,58.8,24
500,ns02,2019-07-16T00:00:00,50.8,45.8,55.2,24
501,ns02,2019-07-17T00:00:00,51.1,45.4,55.9,24
502,ns02,2019-07-18T00:00:00,52.8,45.2,59.9,24
503,ns02,2019-07-19T00:00:00,53.2,44.9,59.4,24
504,ns02,2019-07-20T00:00:00,52.1,44,55.8,24
505,ns02,2019-07-21T00:00:00,52.4,43.3,57.1,24
506,ns02,2019-07-22T00:00:00,53.4,43.8,59.7,24
507,ns02,2019-07-23T00:00:00,53.1,42.5,57.7,24
508,ns02,2019-07-24T00:00:00,53.2,46,58.5,24
509,ns02,2019-07-25T00:00:00,54.8,42.8,61.8,24
510,ns02,2019-07-26T00:00:00,53.4,43.5,60.4,24
511,ns02,2019-07-27T00:00:00,52.3,44.4,59.1,24
512,ns02,2019-07-28T00:00:00,50,43.2,57,24
513,ns02,2019-07-29T00:00:00,52,42.3,56.8,24
514,ns02,2019-07-30T00:00:00,52.3,43.3,56.7,24
515,ns02,2019-07-31T00:00:00,55,44.6,61.7,24
516,ns02,2019-08-01T00:00:00,54.4,43.8,58.7,24
517,ns02,2019-08-02T00:00:00,54.5,43.5,61,24
518,ns02,2019-08-03T00:00:00,52.9,45.1,57.4,24
519,ns02,2019-08-04T00:00:00,55.1,44.6,61.1,24
520,ns02,2019-08-05T00:00:00,54.9,44.1,63.1,24
521,ns02,2019-08-06T00:00:00,53.3,43.8,58.4,24
522,ns02,2019-08-07T00:00:00,56.3,44.6,63.7,24
523,ns02,2019-08-08T00:00:00,53.5,44.9,58.1,24
524,ns02,2019-08-09T00:00:00,63.4,45.4,73.2,24
525,ns02,2019-08-10T00:00:00,56,47.4,62.3,24
526,ns02,2019-08-11T00:00:00,63.3,47.7,73.1,24
527,ns02,2019-08-12T00:00:00,59.7,49.6,66.7,24
528,ns02,2019-08-13T00:00:00,60.1,51.4,67.1,24
529,ns02,2019-08-14T00:00:00,58.9,52.3,69.7,24
530,ns02,2019-08-15T00:00:00,58.9,50.8,66.7,24
531,ns02,2019-08-16T00:00:00,56.1,50.5,59.3,24
532,ns02,2019-08-17T00:00:00,57.4,51.8,66,24
533,ns02,2019-08-18T00:00:00,55.3,51,59.5,24